Probability
0 0 0 0 0 0 0 0 0 0 0 0 0 0 0 0 0 13 39 61 84 94 97 100 97 100 100 100 94 94 90 90 90 90 87 84 84 87 90 94 90 97 94 97
0 0 0 0 0 0 0 0 0 0 0 0 3 0 0 0 3 10 39 65 84 94 94 97 97 100 100 97 94 94 94 90 90 90 90 87 81 77 77 84 90 97 97 100
0 0 0 0 0 0 0 0 0 0 0 0 0 0 0 3 3 16 35 55 74 84 97 94 94 97 97 97 94 90 94 90 90 87 90 84 87 81 81 87 90 87 90 94
0 0 0 0 0 0 0 0 0 0 0 0 0 0 0 3 13 16 26 39 61 81 90 94 97 97 94 94 94 90 90 87 90 87 87 77 74 71 71 81 81 84 87 87
0 0 0 0 0 0 0 0 0 0 0 0 0 0 0 10 10 13 19 26 42 71 84 87 81 90 87 87 90 90 90 90 90 90 87 81 77 74 77 77 77 77 77 87
0 0 0 0 0 0 0 0 0 0 0 0 0 0 3 6 10 19 26 32 52 55 74 87 87 90 90 81 81 84 87 90 90 90 84 81 87 81 71 68 65 65 81 84
0 0 0 0 0 0 0 0 0 0 0 0 0 0 3 10 16 23 26 48 42 65 74 84 87 87 87 84 81 81 87 87 87 84 84 90 84 74 71 71 71 74 65 74
0 0 0 0 0 0 0 0 0 0 0 0 0 0 10 16 19 29 39 45 42 55 77 81 87 87 87 84 81 84 84 81 81 81 87 81 87 77 77 68 68 65 65 61
0 0 0 0 0 0 0 0 0 0 0 0 0 3 16 19 23 26 29 32 42 48 65 71 84 77 84 84 84 84 81 84 84 81 81 81 84 84 81 77 71 68 68 61
0 0 0 0 0 0 0 0 0 0 6 0 0 0 16 23 26 26 29 32 42 55 71 74 74 71 71 77 84 81 81 77 81 77 77 71 74 74 71 74 74 68 65 68
0 0 0 0 0 0 0 0 0 0 0 0 0 0 6 26 35 32 32 32 35 61 61 65 71 77 74 81 77 77 81 74 71 74 74 74 71 68 68 58 58 68 65 61
0 0 0 0 0 0 0 0 0 0 10 3 0 6 10 13 16 29 29 39 45 61 61 65 71 77 81 68 77 71 68 71 71 74 74 77 74 68 55 48 52 65 58 52
0 0 0 0 0 0 0 0 0 0 0 0 0 10 10 10 16 26 35 45 58 61 58 58 71 81 77 84 87 74 68 65 65 74 71 74 77 68 65 55 58 52 52 48
0 0 0 0 0 0 0 0 0 0 0 0 0 6 13 16 32 32 39 55 55 68 71 65 68 74 77 71 77 74 71 71 68 74 74 71 71 68 61 55 55 45 45 42
0 0 0 0 0 0 0 0 0 0 0 0 6 10 13 13 35 42 52 65 74 74 71 74 81 77 77 71 74 68 65 74 74 68 61 55 68 58 61 58 42 45 42 35
0 0 0 0 0 0 0 0 0 0 0 3 3 10 23 35 35 58 55 65 68 68 68 65 77 81 77 74 71 74 68 71 74 68 61 58 55 55 52 52 52 48 45 39
0 0 0 0 0 0 0 0 0 0 3 0 0 19 29 35 42 58 52 65 61 68 65 65 68 77 81 71 81 71 71 68 68 65 55 55 52 45 45 42 45 48 45 35
16 13 6 0 0 0 0 0 0 3 6 6 23 29 39 39 48 65 61 65 61 58 61 58 58 65 65 68 68 68 68 58 58 58 45 48 48 45 45 42 39 48 42 42
19 45 0 0 0 0 0 3 0 3 3 13 19 39 39 42 48 52 55 58 55 55 55 55 55 58 61 65 65 55 65 61 55 58 52 52 48 48 48 42 35 45 39 35
3 32 6 0 0 0 6 3 0 3 23 29 45 35 35 42 52 48 55 52 48 52 52 58 58 58 68 71 61 58 58 61 55 58 58 55 55 52 45 35 32 35 35 23
10 19 3 3 0 0 3 6 3 3 45 58 58 52 61 61 52 45 39 48 45 48 52 55 58 58 58 61 61 55 55 52 48 55 55 52 45 45 35 35 35 26 26 19
3 6 6 3 0 3 10 19 26 55 61 65 61 61 58 61 58 42 48 48 45 45 32 32 35 42 45 48 48 45 52 52 39 42 39 39 32 29 19 16 13 19 16 16
0 6 3 13 19 35 32 45 48 48 52 55 65 55 58 61 42 42 39 35 35 32 32 32 35 39 39 42 45 39 42 42 32 35 35 32 26 16 19 16 16 10 6 6
6 10 10 16 26 26 23 23 29 35 48 45 48 45 45 45 35 32 35 32 32 23 26 26 23 29 29 29 26 29 19 26 26 26 19 16 6 3 3 0 3 3 3 6
0 10 10 16 16 10 26 26 23 29 32 26 39 32 32 42 32 35 29 29 26 19 19 23 26 26 26 19 13 13 19 13 19 10 10 3 3 0 0 0 0 0 0 0
0 10 10 16 16 10 13 23 23 29 35 32 29 32 23 26 23 10 10 13 10 13 16 13 13 6 6 10 6 6 3 10 10 10 3 0 0 3 0 0 0 0 0 0
Height
5871 5874 5876 5879 5882 5885 5887 5891 5894 5896 5894 5893 5893 5893 5893 5892 5891 5890 5889 5887 5885 5885 5885 5885 5884 5884 5883 5882 5882 5880 5879 5878 5877 5876 5875 5876 5876 5877 5878 5880 5881 5882 5883 5885
5867 5870 5874 5875 5878 5880 5883 5886 5890 5892 5891 5890 5890 5890 5890 5889 5888 5888 5887 5884 5883 5883 5883 5883 5882 5882 5881 5880 5879 5878 5877 5875 5874 5873 5873 5873 5873 5874 5875 5876 5877 5879 5880 5881
5863 5868 5869 5871 5874 5877 5879 5882 5886 5888 5888 5887 5887 5887 5887 5886 5885 5885 5884 5882 5881 5881 5881 5880 5880 5879 5878 5877 5876 5875 5874 5873 5871 5870 5869 5869 5870 5870 5872 5873 5874 5875 5877 5878
5858 5862 5864 5867 5870 5873 5875 5879 5881 5883 5885 5885 5885 5884 5884 5882 5882 5882 5882 5881 5879 5878 5878 5878 5877 5877 5876 5874 5873 5872 5871 5870 5868 5867 5866 5865 5866 5867 5868 5869 5870 5871 5873 5875
5853 5857 5859 5863 5866 5869 5872 5875 5877 5878 5880 5881 5881 5882 5881 5879 5877 5877 5878 5878 5877 5875 5875 5875 5875 5874 5873 5872 5870 5870 5868 5866 5865 5864 5863 5863 5863 5864 5864 5865 5866 5868 5870 5871
5849 5852 5855 5858 5862 5865 5868 5871 5872 5874 5875 5876 5877 5878 5878 5875 5873 5873 5873 5874 5874 5873 5873 5873 5872 5871 5870 5869 5867 5866 5865 5863 5862 5861 5860 5859 5859 5860 5860 5861 5862 5864 5866 5868
5843 5847 5850 5854 5857 5860 5863 5867 5869 5870 5871 5872 5874 5874 5874 5872 5872 5871 5871 5872 5871 5871 5871 5870 5869 5868 5867 5866 5864 5863 5861 5860 5859 5857 5857 5856 5856 5857 5857 5858 5859 5861 5862 5864
5839 5843 5846 5849 5853 5856 5859 5863 5866 5869 5870 5870 5871 5871 5870 5870 5870 5869 5869 5869 5868 5868 5868 5867 5866 5865 5864 5862 5861 5859 5858 5856 5855 5855 5854 5853 5853 5854 5855 5855 5856 5857 5859 5860
5837 5840 5843 5845 5848 5852 5855 5858 5862 5865 5866 5867 5867 5867 5866 5866 5867 5867 5867 5866 5866 5866 5865 5864 5863 5862 5861 5859 5858 5856 5855 5854 5853 5852 5852 5852 5852 5852 5852 5852 5853 5854 5855 5857
5833 5837 5839 5841 5843 5847 5851 5855 5858 5860 5862 5864 5865 5864 5863 5862 5863 5863 5863 5863 5863 5862 5861 5861 5860 5859 5858 5857 5855 5854 5853 5852 5851 5850 5849 5849 5849 5850 5850 5850 5850 5851 5852 5853
5827 5833 5836 5837 5838 5843 5846 5850 5853 5856 5859 5861 5862 5862 5858 5857 5858 5859 5860 5860 5860 5860 5859 5858 5858 5857 5855 5854 5853 5852 5851 5850 5849 5848 5848 5847 5847 5848 5847 5847 5848 5848 5849 5849
5821 5827 5831 5833 5835 5838 5842 5845 5849 5851 5853 5856 5857 5858 5853 5853 5854 5856 5857 5857 5857 5856 5856 5855 5855 5854 5854 5853 5852 5851 5849 5848 5847 5847 5846 5846 5846 5845 5845 5845 5845 5845 5846 5846
5816 5821 5825 5829 5833 5834 5837 5840 5844 5848 5851 5852 5855 5855 5850 5850 5852 5852 5854 5854 5853 5853 5853 5852 5852 5852 5852 5851 5850 5849 5848 5847 5846 5845 5844 5844 5844 5843 5843 5843 5842 5842 5843 5843
5810 5814 5820 5825 5827 5829 5832 5835 5839 5843 5846 5849 5850 5849 5847 5847 5848 5849 5850 5850 5850 5850 5850 5849 5849 5850 5850 5849 5848 5847 5846 5846 5845 5844 5843 5842 5842 5842 5841 5840 5840 5840 5840 5840
5803 5808 5813 5818 5822 5825 5827 5830 5834 5837 5841 5844 5845 5844 5844 5843 5843 5845 5846 5846 5847 5847 5847 5847 5847 5846 5847 5847 5847 5846 5845 5844 5843 5842 5841 5840 5840 5840 5839 5838 5838 5837 5837 5837
5797 5802 5807 5812 5816 5819 5823 5826 5830 5833 5836 5838 5839 5838 5838 5838 5838 5840 5842 5843 5843 5843 5844 5844 5844 5844 5845 5845 5844 5844 5843 5842 5841 5840 5840 5839 5838 5837 5837 5836 5835 5834 5834 5834
5791 5797 5802 5807 5811 5815 5818 5822 5825 5828 5830 5833 5833 5833 5832 5832 5834 5836 5836 5838 5839 5839 5841 5841 5841 5841 5840 5842 5842 5841 5840 5839 5839 5838 5837 5837 5836 5835 5834 5833 5833 5832 5831 5831
5785 5790 5796 5802 5806 5809 5815 5818 5821 5823 5825 5827 5828 5828 5829 5829 5830 5832 5833 5834 5835 5836 5837 5838 5838 5838 5838 5839 5838 5838 5838 5837 5836 5836 5835 5833 5832 5832 5831 5831 5830 5829 5828 5828
5779 5785 5790 5796 5800 5804 5808 5812 5814 5817 5819 5821 5822 5822 5824 5825 5826 5828 5829 5830 5831 5832 5833 5834 5835 5835 5835 5835 5835 5835 5835 5834 5834 5833 5832 5831 5830 5829 5829 5828 5827 5826 5825 5824
5774 5780 5785 5789 5794 5798 5802 5805 5808 5812 5813 5815 5815 5817 5818 5818 5821 5823 5825 5826 5827 5828 5829 5830 5831 5831 5831 5831 5831 5831 5831 5831 5830 5830 5829 5828 5827 5826 5825 5825 5824 5823 5822 5821
5768 5773 5778 5783 5787 5790 5794 5797 5802 5806 5807 5807 5809 5811 5813 5814 5817 5818 5819 5822 5823 5824 5825 5826 5827 5827 5827 5827 5827 5827 5827 5827 5826 5826 5825 5824 5823 5823 5822 5821 5820 5819 5818 5817
5762 5767 5772 5776 5781 5784 5786 5791 5794 5797 5800 5801 5803 5805 5808 5810 5812 5814 5816 5818 5819 5820 5821 5822 5823 5823 5823 5823 5823 5823 5823 5822 5822 5822 5821 5820 5819 5818 5817 5816 5815 5815 5813 5813
5755 5760 5765 5769 5774 5775 5780 5783 5787 5790 5793 5795 5798 5801 5804 5805 5807 5809 5812 5813 5814 5815 5816 5817 5818 5818 5818 5818 5818 5818 5818 5817 5817 5817 5816 5816 5815 5814 5813 5812 5811 5810 5809 5809
5747 5751 5758 5762 5766 5770 5773 5777 5781 5784 5788 5791 5794 5796 5798 5800 5802 5804 5806 5808 5809 5810 5811 5812 5813 5813 5813 5813 5813 5813 5812 5812 5812 5811 5811 5810 5810 5809 5808 5808 5806 5806 5805 5803
5740 5746 5751 5755 5760 5764 5768 5771 5775 5778 5783 5786 5788 5791 5793 5795 5797 5799 5801 5803 5804 5805 5806 5807 5807 5807 5807 5808 5808 5807 5807 5807 5806 5806 5806 5805 5805 5804 5803 5802 5801 5800 5799 5798
5734 5740 5745 5749 5753 5756 5760 5765 5769 5773 5776 5779 5782 5785 5787 5789 5791 5794 5795 5797 5798 5799 5800 5801 5801 5802 5802 5802 5802 5802 5802 5801 5801 5801 5800 5800 5799 5799 5798 5797 5796 5794 5794 5793
Wind_Speed
21 20 18 16 15 14 13 12 12 12 16 16 13 12 13 16 16 16 17 17 15 13 13 13 13 13 13 13 14 14 15 14 14 13 12 12 13 14 15 14 14 15 15 15
23 21 18 18 18 18 17 16 14 14 18 17 16 15 15 16 17 16 17 16 16 14 14 13 13 14 14 15 15 15 16 15 15 14 13 12 13 13 14 15 14 15 15 15
23 20 21 21 20 19 19 18 16 15 17 18 16 15 15 17 17 16 16 16 16 15 14 14 14 15 15 16 16 17 17 17 16 15 15 14 13 14 15 15 16 15 16 16
25 23 22 22 21 20 19 19 19 18 17 17 16 16 17 18 16 16 15 17 17 16 14 14 14 15 16 17 17 17 18 18 17 16 16 15 13 14 15 16 16 16 17 16
26 25 25 23 22 21 19 18 19 19 19 18 16 16 17 20 18 15 14 16 17 17 15 15 15 16 17 18 18 18 19 18 17 17 17 16 14 15 16 16 16 15 16 16
26 26 26 24 23 23 21 20 20 19 19 19 16 17 18 18 17 15 16 16 17 16 16 17 16 16 17 18 18 18 18 17 17 16 16 15 14 14 14 14 15 14 15 16
27 26 25 24 24 23 22 20 18 17 17 15 13 16 18 18 18 17 17 17 18 17 17 17 17 17 17 18 18 18 18 17 16 16 15 13 13 13 13 13 14 14 15 16
25 25 25 25 23 22 22 21 19 15 13 13 13 15 16 18 19 19 19 20 19 18 18 18 18 17 17 18 18 18 17 16 15 14 14 12 11 12 13 14 14 15 15 16
21 22 23 24 23 23 22 22 18 16 13 14 14 14 17 18 20 20 19 20 19 19 19 18 18 17 17 17 16 16 15 14 13 12 12 12 11 11 12 13 14 14 15 16
20 19 21 23 24 24 22 20 20 20 18 16 15 18 19 18 18 19 18 19 18 18 18 18 17 16 16 16 15 13 13 13 11 11 11 11 11 11 12 13 14 15 15 16
25 21 20 22 24 23 24 24 23 22 21 17 16 18 19 20 18 18 18 18 17 17 17 17 15 16 15 14 13 12 12 11 10 10 10 10 11 11 12 13 13 13 14 15
28 24 22 22 22 21 22 23 24 24 22 19 18 20 20 17 16 17 18 18 17 17 16 16 14 14 14 13 12 12 12 11 11 10 10 10 10 11 12 12 13 14 14 15
30 29 26 23 23 22 23 23 23 23 21 20 19 22 21 17 16 19 19 18 18 17 16 15 14 14 13 12 12 12 11 11 11 10 10 10 11 11 12 12 13 13 13 14
31 33 29 23 21 21 21 22 23 23 22 21 22 24 23 20 19 20 20 19 18 17 15 14 13 13 12 12 12 12 12 12 11 11 11 10 10 10 11 12 13 13 13 13
33 33 32 27 22 22 20 19 22 24 23 22 23 25 25 24 20 20 19 19 18 17 16 15 14 13 13 13 12 12 12 12 11 11 11 10 10 11 11 12 12 12 13 14
33 33 31 29 25 20 20 20 21 23 23 23 24 25 25 26 23 21 19 20 19 18 16 16 15 14 14 14 13 13 13 12 12 12 12 12 11 12 12 12 12 12 13 13
31 33 32 28 25 24 23 22 22 22 23 24 26 26 25 24 22 21 20 19 19 18 18 17 16 16 15 16 15 15 15 14 14 14 14 13 13 13 13 12 12 12 13 14
32 32 32 29 28 27 24 21 21 22 24 26 26 27 26 24 22 23 21 20 20 20 19 18 17 17 17 17 16 16 15 15 15 15 15 14 14 14 14 13 13 14 14 15
32 32 32 30 28 26 24 24 24 25 26 27 28 27 27 26 25 24 23 22 20 19 19 19 18 18 18 18 17 17 16 16 16 16 16 16 15 15 15 15 15 15 16 16
33 32 32 32 30 28 28 27 27 27 28 28 29 27 26 26 24 23 22 22 20 19 19 19 19 19 19 18 18 18 18 18 18 17 17 17 17 16 16 17 17 17 17 17
34 34 34 33 31 30 30 29 27 29 29 29 29 28 28 27 26 23 21 21 20 20 20 20 20 20 20 20 20 20 19 19 19 19 19 19 18 18 18 18 18 19 18 18
34 34 34 35 34 32 33 31 31 31 29 28 28 26 27 26 25 23 22 22 22 22 21 21 21 21 21 21 21 21 21 21 21 21 20 20 20 19 19 19 19 20 19 19
34 34 34 36 37 36 33 32 31 30 29 28 28 27 27 27 25 24 23 23 23 22 22 22 22 22 22 22 21 21 22 22 22 22 21 21 21 20 20 20 20 20 20 20
36 36 37 37 38 35 33 32 32 30 29 28 28 28 27 26 26 25 24 24 23 22 22 22 22 22 22 21 21 21 22 22 22 22 22 21 21 21 21 21 21 21 21 21
36 37 37 38 38 36 34 34 32 29 29 28 28 27 28 28 27 26 26 25 25 24 23 23 23 22 22 21 22 21 21 21 22 22 22 22 21 21 21 21 22 22 22 22
35 38 40 39 38 35 34 33 32 31 29 30 30 29 29 29 28 27 27 27 26 25 24 24 24 24 23 23 22 22 22 22 22 22 22 22 22 22 23 23 23 23 23 23
Wind_Direction
237 237 237 237 237 230 212 222 238 244 250 260 260 256 254 264 270 273 280 284 285 293 297 299 300 304 306 308 310 311 313 312 309 301 293 274 264 260 255 256 251 245 247 248
237 237 237 235 233 232 224 220 225 235 250 258 259 258 257 261 271 273 274 277 284 290 292 292 294 299 302 305 307 307 309 308 304 299 293 280 271 261 256 255 251 247 246 247
238 236 236 235 234 233 232 229 229 232 249 259 261 261 262 265 269 274 276 279 285 287 288 290 293 296 300 303 304 304 306 307 302 301 294 283 274 268 262 259 251 246 244 244
234 232 234 235 234 236 237 235 235 235 242 256 263 263 264 269 269 279 279 280 284 288 285 286 290 293 298 301 303 303 305 304 300 297 294 289 275 269 264 259 255 245 241 242
233 232 233 234 234 235 235 238 241 241 244 250 254 262 266 272 265 271 280 281 284 286 289 288 289 292 296 300 301 302 303 302 298 293 291 287 274 270 265 260 255 250 244 242
231 234 235 236 236 235 235 237 243 244 246 252 248 249 258 267 266 269 276 281 285 286 286 287 290 291 294 297 300 302 303 301 296 293 290 282 273 270 267 263 256 251 245 240
229 231 236 235 235 236 234 235 240 247 251 257 252 249 254 256 263 267 270 272 278 284 284 285 290 293 294 296 298 300 302 300 296 294 293 282 272 270 269 266 256 251 247 242
234 234 236 236 234 234 237 234 234 239 254 263 254 250 250 258 263 265 269 273 274 279 282 285 289 292 294 297 299 298 299 301 295 291 290 282 275 271 270 263 257 253 250 246
230 239 239 237 233 228 232 233 230 233 241 254 254 245 250 255 260 266 270 275 276 279 281 285 288 290 294 300 301 298 298 300 296 288 283 279 278 276 271 264 259 256 252 247
213 232 236 242 236 229 225 230 224 222 233 246 253 259 263 267 267 272 274 276 278 280 283 286 289 290 293 300 301 298 297 298 297 291 282 277 279 278 272 271 262 256 253 250
205 217 227 235 239 231 224 221 223 226 227 235 251 254 253 258 263 271 277 278 278 278 282 285 288 290 294 298 298 298 300 301 297 295 288 282 283 284 277 275 269 261 257 254
209 212 221 231 240 233 230 225 224 225 227 226 245 259 254 250 263 272 278 277 273 274 280 283 284 288 291 294 295 297 299 299 296 292 293 292 288 285 281 277 271 265 264 260
212 211 215 222 229 231 227 225 222 227 231 230 238 259 260 261 260 271 274 273 272 272 278 280 281 284 287 290 293 296 298 301 302 300 297 296 293 290 285 281 275 272 266 261
211 214 211 217 225 230 232 224 220 220 224 230 234 247 255 256 258 265 269 270 271 274 275 279 278 278 281 286 291 295 298 300 303 304 301 296 295 296 292 286 281 276 270 270
213 214 213 209 215 225 228 225 221 220 220 226 233 242 253 257 258 262 266 268 268 268 269 275 278 277 281 286 289 294 297 302 303 304 304 301 299 297 296 293 290 282 276 274
216 211 211 212 214 217 220 226 226 223 220 226 233 243 248 252 259 259 262 262 266 265 266 272 275 276 281 285 288 294 295 297 301 303 304 301 299 297 296 293 292 289 286 279
218 214 211 212 217 217 222 223 226 226 224 226 232 240 246 246 253 262 264 262 266 266 269 270 272 273 277 282 286 289 292 294 298 300 302 299 300 298 295 294 296 296 291 286
216 214 212 210 214 221 222 223 225 225 227 230 236 243 247 254 253 257 261 262 262 263 266 269 272 274 277 279 282 284 286 289 293 295 298 299 301 300 298 296 296 298 291 285
215 215 212 211 215 220 218 218 221 224 227 230 237 243 244 248 249 253 257 261 262 262 265 268 272 275 275 276 279 281 282 285 289 293 295 297 300 298 297 297 297 296 295 291
217 217 214 213 212 220 221 220 221 225 229 233 236 239 243 246 250 251 252 257 260 262 265 267 270 272 274 275 278 280 281 283 287 290 293 294 296 294 295 296 296 294 294 295
218 218 216 213 214 221 221 220 221 225 229 234 236 237 242 248 250 251 250 255 257 260 264 268 270 272 275 278 278 279 280 283 285 288 290 292 294 293 292 295 296 295 294 294
219 219 217 215 216 222 222 221 223 227 232 236 239 240 244 248 249 249 252 256 259 260 265 269 272 273 275 277 278 277 279 282 284 286 288 289 290 294 292 294 295 297 296 293
216 217 219 220 220 222 223 224 225 228 234 238 241 244 246 247 250 249 251 256 259 262 265 269 272 274 275 276 276 275 277 279 281 283 284 285 288 291 294 294 293 293 294 293
215 216 217 220 222 225 227 227 229 232 237 241 242 242 243 245 248 253 256 257 261 264 266 269 270 272 273 274 275 275 276 278 279 281 282 284 285 288 290 292 292 292 294 296
216 217 218 221 224 226 226 229 231 232 235 238 241 243 244 247 249 252 255 257 260 262 264 267 269 269 272 273 274 275 277 280 281 282 282 283 284 286 289 291 292 293 294 296
216 218 219 223 226 228 227 230 233 233 237 240 242 244 245 247 249 251 254 257 259 262 265 268 270 270 270 272 275 277 279 280 280 281 281 282 283 285 286 288 290 291 292 293